TimeMST,TemperatureF,Dew PointF,Humidity,Sea Level PressureIn,VisibilityMPH,Wind Direction,Wind SpeedMPH,Gust SpeedMPH,PrecipitationIn,Events,Conditions,WindDirDegrees,DateUTC
12:53 AM,1.0,-2.9,83,30.26,10.0,WNW,8.1,-,N/A,,Clear,300,2014-01-05 07:53:00
1:53 AM,-0.9,-5.1,83,30.27,10.0,West,5.8,-,N/A,,Partly Cloudy,280,2014-01-05 08:53:00
2:53 AM,3.9,-0.9,80,30.25,10.0,NNW,6.9,-,N/A,,Scattered Clouds,340,2014-01-05 09:53:00
3:53 AM,-6.0,-9.0,87,30.30,10.0,WNW,5.8,-,N/A,,Clear,290,2014-01-05 10:53:00
4:53 AM,-4.0,-9.0,79,30.32,10.0,NW,6.9,-,N/A,,Scattered Clouds,310,2014-01-05 11:53:00
5:53 AM,-0.0,-5.1,79,30.30,10.0,NNE,6.9,-,N/A,,Mostly Cloudy,20,2014-01-05 12:53:00
6:53 AM,3.0,-2.0,80,30.33,10.0,North,4.6,-,N/A,,Overcast,10,2014-01-05 13:53:00
7:53 AM,5.0,-0.0,80,30.37,10.0,NW,4.6,-,N/A,,Overcast,320,2014-01-05 14:53:00
8:20 AM,8.1,3.0,80,30.19,3.0,NE,11.5,-,0.00,Snow,Light Snow,40,2014-01-05 15:20:00
8:27 AM,8.1,3.0,80,30.19,1.8,NNE,13.8,-,0.00,Snow,Light Snow,30,2014-01-05 15:27:00
8:40 AM,8.1,3.0,80,30.20,2.0,NE,13.8,-,0.00,Snow,Light Snow,40,2014-01-05 15:40:00
8:53 AM,8.1,3.9,83,30.38,2.5,NNE,11.5,-,0.00,Snow,Light Snow,30,2014-01-05 15:53:00
9:07 AM,8.1,3.0,80,30.21,3.0,NNE,15.0,-,0.00,Snow,Light Snow,30,2014-01-05 16:07:00
9:19 AM,9.0,3.9,80,30.22,3.0,NNE,12.7,-,0.00,Snow,Light Snow,30,2014-01-05 16:19:00
9:53 AM,8.1,3.0,80,30.43,5.0,NNE,13.8,-,0.00,,Haze,20,2014-01-05 16:53:00
10:53 AM,9.0,1.9,73,30.45,9.0,North,12.7,-,N/A,,Overcast,10,2014-01-05 17:53:00
11:28 AM,10.0,3.0,73,30.23,3.0,North,13.8,-,0.00,Snow,Light Snow,10,2014-01-05 18:28:00
11:53 AM,10.9,3.0,70,30.45,6.0,North,10.4,-,0.00,,Haze,360,2014-01-05 18:53:00
12:31 PM,10.0,3.0,73,30.23,7.0,North,11.5,-,0.00,,Overcast,350,2014-01-05 19:31:00
12:42 PM,10.0,3.0,73,30.24,4.0,NNW,9.2,-,0.00,,Haze,340,2014-01-05 19:42:00
12:53 PM,10.0,3.9,76,30.46,6.0,NNW,11.5,-,0.00,,Haze,340,2014-01-05 19:53:00
1:13 PM,10.9,3.9,73,30.24,6.0,NNW,12.7,-,0.00,,Haze,340,2014-01-05 20:13:00
1:23 PM,10.9,3.0,70,30.24,5.0,North,11.5,-,0.00,Snow,Light Snow,350,2014-01-05 20:23:00
1:30 PM,10.9,3.0,70,30.24,9.0,North,11.5,-,0.00,,Mostly Cloudy,350,2014-01-05 20:30:00
1:53 PM,10.9,3.9,73,30.48,10.0,North,12.7,-,0.00,,Mostly Cloudy,350,2014-01-05 20:53:00
2:35 PM,12.9,3.0,65,30.26,10.0,NNW,13.8,-,N/A,,Mostly Cloudy,340,2014-01-05 21:35:00
2:53 PM,12.9,3.9,67,30.47,10.0,NNW,12.7,-,N/A,,Mostly Cloudy,340,2014-01-05 21:53:00
3:02 PM,12.9,5.0,71,30.27,4.0,NNW,12.7,-,0.00,Snow,Light Snow,340,2014-01-05 22:02:00
3:10 PM,12.0,5.0,73,30.27,2.5,North,15.0,-,0.00,Snow,Light Snow,350,2014-01-05 22:10:00
3:15 PM,12.0,5.0,73,30.27,7.0,North,13.8,-,0.00,Snow,Light Snow,350,2014-01-05 22:15:00
3:53 PM,10.9,3.0,70,30.53,10.0,NNW,10.4,-,0.00,,Clear,340,2014-01-05 22:53:00
4:53 PM,5.0,-0.9,76,30.55,10.0,North,10.4,-,N/A,,Clear,360,2014-01-05 23:53:00
5:42 PM,7.0,1.0,77,30.32,4.0,North,13.8,-,0.00,Snow,Light Snow,350,2014-01-06 00:42:00
5:51 PM,8.6,1.4,73,30.33,2.5,North,15.0,-,0.00,Snow,Light Snow,350,2014-01-06 00:51:00
5:53 PM,8.1,1.9,76,30.57,2.0,North,16.1,-,0.00,Snow,Light Snow,360,2014-01-06 00:53:00
6:01 PM,8.1,3.0,80,30.34,1.5,North,23.0,31.1,0.00,Snow,Light Snow,360,2014-01-06 01:01:00
6:07 PM,7.0,1.9,80,30.34,3.0,North,17.3,31.1,0.00,Snow,Light Snow,360,2014-01-06 01:07:00
6:15 PM,7.0,1.9,80,30.34,2.5,NNE,20.7,-,0.00,Snow,Light Snow,20,2014-01-06 01:15:00
6:27 PM,5.0,-0.0,80,30.35,3.0,North,21.9,-,0.00,,Haze,10,2014-01-06 01:27:00
6:53 PM,3.0,-2.9,76,30.61,10.0,North,19.6,-,0.00,,Mostly Cloudy,10,2014-01-06 01:53:00
7:53 PM,-0.0,-7.1,72,30.64,10.0,North,11.5,-,N/A,,Overcast,350,2014-01-06 02:53:00
8:53 PM,-2.0,-8.0,76,30.65,10.0,NW,11.5,-,N/A,,Mostly Cloudy,310,2014-01-06 03:53:00
9:53 PM,-6.0,-11.9,75,30.66,10.0,NW,11.5,-,N/A,,Clear,310,2014-01-06 04:53:00
10:53 PM,-11.0,-16.1,78,30.66,10.0,WNW,9.2,-,N/A,,Clear,290,2014-01-06 05:53:00
11:53 PM,-13.0,-18.0,78,30.63,10.0,West,5.8,-,N/A,,Clear,280,2014-01-06 06:53:00